This is the latest recevied weather packets stored in our database for station/object AB8DT-10. If no packets are shown the sender has not sent any weather packets the latest 10 day(s).
| Time | Temp. | Humidity | Pressure | Rain* | Wind** | Luminosity | Snow |
|---|---|---|---|---|---|---|---|
| 1777912612 | 21.11° C | 29% | 0 hPa | 0 mm | - | - | - |
| 1777912312 | 21.11° C | 29% | 0 hPa | 0 mm | - | - | - |
| 1777912012 | 20.56° C | 31% | 0 hPa | 0 mm | - | - | - |
| 1777911712 | 20.56° C | 31% | 0 hPa | 0 mm | - | - | - |
| 1777911412 | 20.56° C | 33% | 0 hPa | 0 mm | - | - | - |
| 1777911112 | 20.56° C | 35% | 0 hPa | 0 mm | - | - | - |
| 1777910812 | 21.11° C | 35% | 0 hPa | 0 mm | - | - | - |
| 1777910512 | 20.56° C | 35% | 0 hPa | 0 mm | - | - | - |
| 1777910212 | 20.56° C | 37% | 0 hPa | 0 mm | - | - | - |
| 1777909912 | 20° C | 36% | 0 hPa | 0 mm | - | - | - |
| 1777909612 | 20° C | 38% | 0 hPa | 0 mm | - | - | - |
| 1777909312 | 19.44° C | 39% | 0 hPa | 0 mm | - | - | - |
| 1777909012 | 19.44° C | 39% | 0 hPa | 0 mm | - | - | - |
| 1777908712 | 19.44° C | 39% | 0 hPa | 0 mm | - | - | - |
| 1777908412 | 18.89° C | 39% | 0 hPa | 0 mm | - | - | - |
| 1777908112 | 18.89° C | 43% | 0 hPa | 0 mm | - | - | - |
| 1777907812 | 18.33° C | 44% | 0 hPa | 0 mm | - | - | - |
| 1777907512 | 18.89° C | 44% | 0 hPa | 0 mm | - | - | - |
| 1777907212 | 18.33° C | 46% | 0 hPa | 0 mm | - | - | - |
| 1777906912 | 18.33° C | 43% | 0 hPa | 0 mm | - | - | - |
| 1777906612 | 18.33° C | 46% | 0 hPa | 0 mm | - | - | - |
| 1777906312 | 18.33° C | 46% | 0 hPa | 0 mm | - | - | - |
| 1777906012 | 17.78° C | 50% | 0 hPa | 0 mm | - | - | - |
| 1777905712 | 17.78° C | 48% | 0 hPa | 0 mm | - | - | - |
| 1777905412 | 17.22° C | 51% | 0 hPa | 0 mm | - | - | - |
* Rain latest hour (hover to see other rain measurements)
** Current wind speed in m/s (hover to see current wind gust speed)